Вернуться в каталог

STARLINK-11335

АктивенСвязьVLEO
NORAD 61687·PAYLOAD·🇺🇸 United States

Запущен Oct 30, 2024 с Vandenberg Space Force Base

Loading…

Ближайшие Пролёты (ближайшие 24 часа)

TLE

СвежийSource: CelesTrak SupGP

Эпоха: Sep 15, 2026, 01:55 UTC

1 61687C 24195A   26258.08034722 -.00061021  00000+0 -50254-3 0  2586
2 61687  53.1571 172.9864 0001190  84.9507 317.3360 15.69744892    12

Отслеживайте STARLINK-11335 в реальном времени с AllMySat

Download on the App Store